[[{"header":{"parameterUnit":"m.s-1","parameterCategory":1,"la1":30.2991,"la2":30.254,"lo1":-89.0895,"lo2":-89.0444,"dy":0.0017,"dx":0.0017,"nx":28,"ny":28,"refTime":"2024-06-25T03:00:00:Z","depth":0,"parameterNumber":2,"parameterNumberName":"U-component_of_WINDS"},"data":[0,0,0,0,0,0,0,0,0,0,0,0,0,0,0,0,0,0,0,0,0,0,0,0,0,0,0,0,0,0,0,0,0,0,0,0,0,0,0,0,0,0,0,0,0,0,0,0,0,0,0,0,0,0,0,0,0,0,2.4416,2.4418,0,2.457,2.4572,2.4573,2.4513,2.4509,2.4506,2.4502,2.4668,2.4676,2.4683,0,0,0,0,0,0,0,0,0,0,0,0,0,2.4078,2.4084,2.4416,2.4418,2.442,2.457,2.4572,2.4574,2.4514,2.4509,2.4505,2.4501,2.4666,2.4675,2.4684,0,0,0,0,0,0,0,0,0,0,0,0,0,2.4228,2.4086,2.4415,2.4407,2.4408,2.4569,2.4572,2.4574,2.4515,2.4509,2.4504,2.4499,2.4663,2.4674,2.4685,2.4866,0,0,2.4721,2.4726,0,0,0,0,0,0,0,0,2.4219,2.424,2.4407,2.4408,2.4409,2.4516,2.4513,2.4672,2.4516,2.4475,2.4502,2.4496,2.4623,2.4637,2.4678,2.4873,2.4881,2.4722,2.4729,2.4734,2.4737,0,0,0,0,0,0,0,2.4209,2.4233,2.4477,2.4409,2.4411,2.4399,2.4414,2.4543,2.4577,2.4478,2.4474,2.4492,2.4622,2.4667,2.4682,2.4883,2.4722,2.4732,2.4739,2.4744,2.5237,2.5242,0,0,0,0,0,0,2.4197,2.4225,2.4472,2.4482,2.4299,2.4409,2.4426,2.4488,2.4576,2.4584,2.4497,2.4489,2.465,2.4668,2.4687,2.4906,2.4734,2.4745,2.4752,2.5231,2.5238,2.5244,0,0,0,0,0,0,2.419,2.422,2.4466,2.4352,2.4383,2.4421,2.449,2.4494,2.4538,2.459,2.4597,2.4536,2.4646,2.4671,2.4822,2.4911,2.475,2.4761,2.5223,2.5233,2.5241,2.5344,0,0,0,0,0,0,2.4181,2.4217,2.4284,2.4354,2.4389,2.4596,2.4496,2.4501,2.4558,2.4549,2.4628,2.4636,2.4644,2.4805,2.4833,2.4924,2.477,2.5216,2.5228,2.5238,2.5333,2.5356,2.5375,0,0,0,0,0,2.4169,2.4309,2.4288,2.4318,2.4473,2.4601,2.4621,2.4625,2.4565,2.4634,2.4667,2.4634,2.4896,2.4821,2.4852,2.4948,2.521,2.5224,2.5237,2.5323,2.5351,2.5374,0,0,0,0,0,0,2.4251,2.4317,2.4296,2.4461,2.4526,2.459,2.4677,2.4653,2.4738,2.4727,2.473,2.4749,2.4905,2.4941,2.4856,2.5128,2.5044,2.5065,2.5099,2.5126,2.5146,2.5135,2.478,0,0,0,0,0,2.4288,2.4383,2.4437,2.4579,2.4612,2.4639,2.4695,2.4692,2.476,2.4788,2.4832,2.4901,2.4999,2.5064,2.5157,2.5337,2.5355,2.5419,2.544,2.5457,2.5476,2.5576,2.5606,2.529,2.5289,2.5289,0,0,2.4366,2.4414,2.4475,2.4597,2.4646,2.4748,2.4663,2.4774,2.485,2.4805,2.495,2.4985,2.5063,2.523,2.5306,2.5265,2.5566,2.5474,2.5487,2.5497,2.5593,2.5623,2.565,2.5299,2.5297,2.5296,0,0,2.4562,2.4606,2.473,2.478,2.4855,2.4873,2.4902,2.4971,2.4992,2.5137,2.5106,2.5198,2.5366,2.5424,2.5475,2.5692,2.5666,2.5723,2.5834,2.5931,2.5956,2.5979,2.6059,2.6087,2.5741,2.5741,2.5741,0,2.465,2.48,2.4797,2.4911,2.4967,2.4927,2.5055,2.5105,2.5208,2.5249,2.5201,2.5412,2.5461,2.5642,2.5695,2.5737,2.5774,2.5715,2.5952,2.5975,2.5995,2.6072,2.6102,2.5747,2.5747,2.5746,2.5745,0,2.4907,2.5011,2.5102,2.52,2.5266,2.5386,2.5404,2.5471,2.5463,2.5486,2.5636,2.5694,2.5799,2.5841,2.5834,2.6022,2.5995,2.595,2.5866,2.6032,2.6105,2.6134,2.5757,2.5755,2.5753,2.5751,0,0,2.516,2.5253,2.5288,2.5332,2.5412,2.5494,2.5614,2.5713,2.5773,2.5845,2.5947,2.609,2.605,2.6108,2.6108,2.6193,2.6365,2.6138,2.614,2.6181,2.6579,2.6614,2.6647,2.6347,2.6352,2.6357,2.6573,0,2.5363,2.5569,2.5571,2.5762,2.586,2.5825,2.5929,2.5991,2.6016,2.6106,2.6134,2.6236,2.6173,2.6209,2.6291,2.6327,2.6446,2.6311,2.6446,2.645,2.6429,2.6685,2.6722,2.6923,2.6601,2.6606,2.6609,0,2.5628,2.5707,2.5908,2.5974,2.6016,2.6109,2.6202,2.6286,2.6357,2.6369,2.6434,2.6421,2.6546,2.6456,2.663,2.6538,2.6593,2.6619,2.6627,2.6642,2.6542,2.6709,2.6987,2.7018,2.6653,2.6649,2.6646,0,2.5796,2.5952,2.6093,2.6132,2.6212,2.6279,2.6317,2.6381,2.6442,2.6524,2.6564,2.666,2.6714,2.679,2.6804,2.6737,2.698,2.689,2.6996,2.6996,2.7051,2.7048,2.7345,2.7083,2.7082,2.7081,2.7081,0,2.6024,2.615,2.6169,2.6256,2.6396,2.6397,2.6537,2.6569,2.6627,2.6722,2.6697,2.6787,2.6799,2.6894,2.6906,2.705,2.7073,2.7089,2.7092,2.7093,2.7092,2.7131,2.7119,2.7089,2.7088,2.7086,2.7085,0,2.6236,2.6254,2.6406,2.6469,2.6488,2.6589,2.6644,2.6729,2.6751,2.6871,2.69,2.6936,2.7045,2.7066,2.7196,2.7204,2.7377,2.7364,2.7353,2.7352,2.7458,2.7449,2.7793,2.7839,2.7544,2.7547,2.7549,0,2.6382,2.6477,2.6551,2.6611,2.6651,2.6749,2.681,2.6815,2.6881,2.6968,2.7044,2.715,2.7235,2.7413,2.7452,2.7552,2.7543,2.7657,2.7559,2.7558,2.7549,2.7544,2.7555,2.7677,2.768,2.7683,2.7685,0,2.6641,2.6645,2.6732,2.6824,2.6897,2.697,2.7039,2.7091,2.7106,2.7181,2.7291,2.7358,2.749,2.7597,2.7697,2.7738,2.7716,2.7715,2.7745,2.7749,2.774,2.7749,2.7407,2.7708,2.7705,2.7704,2.7702,2.7701,2.6826,2.691,2.6974,2.7073,2.7125,2.7191,2.7274,2.7305,2.7396,2.7503,2.7501,2.7623,2.7693,2.7824,2.7872,2.7969,2.7933,2.7977,2.7988,2.8,2.8011,2.7722,2.7987,2.7986,2.7986,2.7985,2.7985,0,2.7086,2.7125,2.7216,2.7312,2.7391,2.7359,2.7434,2.7504,2.761,2.7676,2.776,2.7888,2.7992,2.8039,2.8142,2.8212,2.8204,2.8239,2.8236,2.8246,2.8035,2.8,2.8243,2.8243,2.8243,2.8243,2.8243,2.8243,2.723,2.737,2.7382,2.7549,2.7588,2.7705,2.7751,2.7812,2.7865,2.8008,2.8094,2.8122,2.8182,2.8289,2.8384,2.8396,2.8436,2.8477,2.8484,2.8287,2.8261,2.8236,2.8202,2.8485,2.8485,2.8686,2.8688,2.869]},{"header":{"parameterUnit":"m.s-1","parameterCategory":1,"la1":30.2991,"la2":30.254,"lo1":-89.0895,"lo2":-89.0444,"dy":0.0017,"dx":0.0017,"nx":28,"ny":28,"refTime":"2024-06-25T03:00:00:Z","depth":0,"parameterNumber":3,"parameterNumberName":"V-component_of_WINDS"},"data":[0,0,0,0,0,0,0,0,0,0,0,0,0,0,0,0,0,0,0,0,0,0,0,0,0,0,0,0,0,0,0,0,0,0,0,0,0,0,0,0,0,0,0,0,0,0,0,0,0,0,0,0,0,0,0,0,0,0,-0.667,-0.667,0,-0.6691,-0.6691,-0.6691,-0.6716,-0.6716,-0.6716,-0.6717,-0.6737,-0.6738,-0.6738,0,0,0,0,0,0,0,0,0,0,0,0,0,-0.6648,-0.6648,-0.667,-0.667,-0.667,-0.6691,-0.6691,-0.6692,-0.6716,-0.6716,-0.6717,-0.6717,-0.6737,-0.6738,-0.6738,0,0,0,0,0,0,0,0,0,0,0,0,0,-0.6662,-0.6648,-0.6669,-0.6685,-0.6686,-0.6691,-0.6691,-0.6692,-0.6716,-0.6716,-0.6717,-0.6717,-0.6737,-0.6738,-0.6738,-0.6729,0,0,-0.6739,-0.6739,0,0,0,0,0,0,0,0,-0.6661,-0.6663,-0.6682,-0.6684,-0.6685,-0.6701,-0.6691,-0.6704,-0.6715,-0.6704,-0.6717,-0.6717,-0.6725,-0.6726,-0.6729,-0.673,-0.6731,-0.6739,-0.6739,-0.6739,-0.6739,0,0,0,0,0,0,0,-0.666,-0.6662,-0.6678,-0.6682,-0.6684,-0.669,-0.6692,-0.6694,-0.6711,-0.6705,-0.6707,-0.6709,-0.6726,-0.6729,-0.673,-0.6731,-0.6739,-0.6739,-0.6739,-0.6739,-0.6724,-0.6724,0,0,0,0,0,0,-0.6657,-0.6661,-0.6677,-0.6679,-0.6674,-0.669,-0.6693,-0.6696,-0.6711,-0.6714,-0.6709,-0.671,-0.6728,-0.6729,-0.673,-0.672,-0.6739,-0.6739,-0.674,-0.6725,-0.6724,-0.6724,0,0,0,0,0,0,-0.6656,-0.6658,-0.6676,-0.667,-0.6673,-0.669,-0.6693,-0.6696,-0.6699,-0.6714,-0.6717,-0.6709,-0.6728,-0.673,-0.6729,-0.6721,-0.674,-0.674,-0.6726,-0.6725,-0.6724,-0.67,0,0,0,0,0,0,-0.6656,-0.6658,-0.6655,-0.667,-0.6673,-0.6675,-0.6692,-0.6696,-0.6699,-0.6701,-0.6715,-0.6717,-0.6729,-0.6728,-0.6729,-0.6722,-0.674,-0.6726,-0.6725,-0.6724,-0.6701,-0.6698,-0.6695,0,0,0,0,0,-0.6655,-0.6647,-0.6655,-0.6657,-0.667,-0.6675,-0.6676,-0.669,-0.6699,-0.6695,-0.6705,-0.6717,-0.6722,-0.6728,-0.6729,-0.6722,-0.6727,-0.6726,-0.6724,-0.6703,-0.6699,-0.6695,0,0,0,0,0,0,-0.6631,-0.665,-0.6658,-0.6656,-0.6663,-0.6679,-0.6675,-0.6686,-0.6691,-0.6693,-0.6709,-0.6712,-0.6709,-0.6715,-0.6722,-0.6713,-0.6726,-0.6725,-0.6709,-0.6706,-0.6703,-0.6701,-0.674,0,0,0,0,0,-0.6625,-0.6628,-0.6644,-0.664,-0.6644,-0.6659,-0.6661,-0.6671,-0.668,-0.6683,-0.6693,-0.67,-0.6703,-0.6705,-0.6709,-0.6703,-0.6705,-0.6698,-0.6695,-0.6693,-0.6691,-0.6687,-0.6684,-0.6719,-0.6719,-0.6719,0,0,-0.6614,-0.6624,-0.6625,-0.6635,-0.6643,-0.6644,-0.6661,-0.6662,-0.6663,-0.6683,-0.6682,-0.669,-0.6699,-0.6695,-0.6694,-0.67,-0.6682,-0.6691,-0.6689,-0.6689,-0.6685,-0.6682,-0.6679,-0.6718,-0.6718,-0.6719,0,0,-0.6594,-0.6602,-0.6599,-0.6606,-0.6617,-0.6627,-0.6626,-0.664,-0.6645,-0.6645,-0.666,-0.6661,-0.6666,-0.6672,-0.6675,-0.6656,-0.6667,-0.6657,-0.6641,-0.6637,-0.6635,-0.6632,-0.6624,-0.6621,-0.6656,-0.6656,-0.6656,0,-0.6578,-0.6581,-0.6596,-0.6596,-0.66,-0.6618,-0.6615,-0.662,-0.6632,-0.6633,-0.6641,-0.6647,-0.6655,-0.6652,-0.6647,-0.665,-0.6649,-0.6655,-0.6634,-0.6632,-0.6629,-0.6622,-0.6619,-0.6654,-0.6655,-0.6655,-0.6655,0,-0.656,-0.6562,-0.6559,-0.6569,-0.6572,-0.6571,-0.6585,-0.6586,-0.6596,-0.6605,-0.6604,-0.6613,-0.6619,-0.6619,-0.6629,-0.6617,-0.6621,-0.6631,-0.6644,-0.6624,-0.6618,-0.6615,-0.6653,-0.6653,-0.6653,-0.6654,0,0,-0.6526,-0.6544,-0.6542,-0.6547,-0.656,-0.6561,-0.656,-0.6565,-0.6566,-0.6573,-0.6571,-0.6575,-0.6584,-0.6588,-0.6598,-0.6595,-0.6578,-0.6605,-0.6606,-0.6599,-0.6564,-0.6556,-0.6552,-0.6585,-0.6584,-0.6584,-0.6563,0,-0.6507,-0.6506,-0.6519,-0.6514,-0.6515,-0.6532,-0.6531,-0.6538,-0.6546,-0.6548,-0.6557,-0.6559,-0.6572,-0.6574,-0.6571,-0.658,-0.6571,-0.6582,-0.6583,-0.6582,-0.6579,-0.6549,-0.654,-0.652,-0.6561,-0.656,-0.656,0,-0.6484,-0.649,-0.6485,-0.6497,-0.6498,-0.6497,-0.6502,-0.6504,-0.6512,-0.6519,-0.6523,-0.6534,-0.6533,-0.6546,-0.6543,-0.6551,-0.6552,-0.6556,-0.6556,-0.6555,-0.6569,-0.6547,-0.6514,-0.651,-0.6556,-0.6556,-0.6557,0,-0.6458,-0.6464,-0.6462,-0.6465,-0.648,-0.6478,-0.6484,-0.6493,-0.6495,-0.65,-0.6501,-0.6506,-0.6508,-0.6511,-0.6523,-0.6532,-0.6519,-0.6533,-0.6523,-0.6523,-0.6519,-0.6519,-0.6485,-0.6521,-0.6521,-0.6522,-0.6522,0,-0.6435,-0.6431,-0.645,-0.6448,-0.6444,-0.6459,-0.6455,-0.6462,-0.6469,-0.6469,-0.6484,-0.6483,-0.65,-0.65,-0.651,-0.6506,-0.6507,-0.6511,-0.6514,-0.6509,-0.6508,-0.6509,-0.6511,-0.6521,-0.6521,-0.6521,-0.6521,0,-0.6404,-0.6417,-0.6415,-0.6429,-0.6432,-0.6428,-0.644,-0.6438,-0.6447,-0.6446,-0.6447,-0.6461,-0.6462,-0.6475,-0.6479,-0.6486,-0.6478,-0.6483,-0.6475,-0.6476,-0.6465,-0.6465,-0.6429,-0.6425,-0.6465,-0.6465,-0.6465,0,-0.6388,-0.6386,-0.6399,-0.6399,-0.6405,-0.6406,-0.6408,-0.6423,-0.6424,-0.6433,-0.643,-0.6433,-0.6436,-0.6437,-0.6448,-0.6451,-0.6456,-0.6443,-0.6456,-0.6452,-0.6454,-0.6454,-0.6453,-0.644,-0.6439,-0.6439,-0.6438,0,-0.6358,-0.6364,-0.6367,-0.6372,-0.6374,-0.6378,-0.6384,-0.6383,-0.64,-0.6401,-0.6402,-0.6404,-0.6409,-0.6411,-0.6416,-0.6421,-0.6432,-0.6434,-0.6432,-0.6427,-0.6422,-0.6423,-0.6466,-0.6435,-0.6435,-0.6435,-0.6436,-0.6436,-0.6333,-0.6331,-0.634,-0.6342,-0.6348,-0.6352,-0.6351,-0.636,-0.6362,-0.6366,-0.6375,-0.6375,-0.6382,-0.639,-0.6394,-0.6394,-0.6401,-0.6398,-0.6397,-0.6395,-0.6392,-0.6422,-0.6395,-0.6395,-0.6395,-0.6396,-0.6396,0,-0.6303,-0.6309,-0.6311,-0.6318,-0.6319,-0.633,-0.6336,-0.6337,-0.6337,-0.6343,-0.6345,-0.6346,-0.6348,-0.6359,-0.6361,-0.6359,-0.6364,-0.6359,-0.6359,-0.636,-0.6387,-0.6388,-0.6355,-0.6355,-0.6355,-0.6355,-0.6355,-0.6355,-0.6287,-0.6284,-0.6291,-0.629,-0.6296,-0.6296,-0.6299,-0.6302,-0.6307,-0.6308,-0.631,-0.6317,-0.6324,-0.6327,-0.6329,-0.6332,-0.6332,-0.6325,-0.6329,-0.6354,-0.6358,-0.6362,-0.6363,-0.6325,-0.6325,-0.6302,-0.6302,-0.6302]}]]